APRIZESAT 3

Last updated on Tue Sep 22 2026 00:03:30 GMT+0000 (Coordinated Universal Time)

1 35686U 09041F 26264.12449462 .00001557 00000+0 13763-3 0 9994 2 35686 98.2193 62.0399 0062792 109.9506 250.8492 14.96469495930725
UTC large
Height (km)
Speed (km/s)
/
Latitude / Longitude
Inclination (degrees)
Orbital Period (minutes)
Azimuth
Elevation
Range (km)
Doppler Factor

Next 0 passes for location: London (51.5072 / 0.1276)

No passes found over London.
APRIZESAT 3